Date,TemperatureHighF,TemperatureAvgF,TemperatureLowF,DewpointHighF,DewpointAvgF,DewpointLowF,HumidityHigh,HumidityAvg,HumidityLow,PressureMaxIn,PressureMinIn,WindSpeedMaxMPH,WindSpeedAvgMPH,GustSpeedMaxMPH,PrecipitationSumIn
2013-1-1,38.2,33.1,21.7,28.4,22.2,8.2,75,64,52,29.93,29.75,5,2,12,0.05
2013-1-2,28.2,22.6,16.4,16.1,11.9,8.2,73,63,54,30.09,29.92,4,2,12,0.00
2013-1-3,27.2,20.1,9.9,16.6,6.8,-2.9,69,56,44,30.14,30.00,4,1,10,0.00
2013-1-4,36.1,30.6,24.0,26.0,22.0,16.6,77,70,63,30.00,29.84,6,3,14,0.00
2013-1-5,41.5,33.9,28.8,25.9,22.5,19.9,71,63,50,30.24,29.89,6,2,14,0.02
2013-1-6,41.2,34.7,30.2,34.4,30.0,20.3,96,83,64,30.19,29.91,4,1,9,0.02
2013-1-7,41.3,35.4,30.9,29.9,25.7,19.3,84,68,52,30.37,29.96,5,1,10,0.00
2013-1-8,46.4,38.6,31.1,35.9,32.2,20.6,95,78,59,30.38,30.28,7,2,14,0.00
2013-1-9,45.4,37.2,28.6,40.0,34.2,26.7,96,89,74,30.36,30.06,7,2,13,0.00
2013-1-10,45.4,40.4,34.0,36.2,27.1,24.3,80,60,44,30.50,30.10,6,2,14,0.00
2013-1-11,43.2,35.6,29.7,42.4,30.5,23.5,97,82,70,30.49,30.13,2,0,5,0.20
2013-1-12,46.2,43.8,40.8,45.7,43.3,40.3,99,98,98,30.14,30.06,3,0,6,0.08
2013-1-13,48.7,45.2,42.9,47.5,44.8,42.6,99,98,94,30.13,29.98,2,0,5,0.01
2013-1-14,57.5,48.6,36.6,53.7,43.7,30.2,99,85,51,30.22,29.89,5,2,9,0.03
2013-1-15,39.4,35.8,33.5,32.8,30.7,27.2,95,82,68,30.28,30.17,3,1,9,0.22
2013-1-16,35.3,33.3,31.2,33.7,32.1,27.8,98,96,75,30.20,29.73,4,1,6,0.22
2013-1-17,42.2,30.6,31.4,33.2,10.4,-99.9,98,69,61,30.05,29.84,4,1,8,0.22
2013-1-18,31.4,24.9,20.7,20.1,7.9,0.5,64,49,34,30.45,29.97,5,2,15,0.00
2013-1-19,45.2,35.1,23.6,36.1,18.0,-99.9,82,63,56,30.39,29.89,4,1,11,0.01
2013-1-20,52.2,42.9,29.2,36.8,28.9,13.3,82,59,32,29.93,29.59,9,4,17,0.00
2013-1-21,30.4,26.3,20.8,25.0,16.4,9.5,94,68,47,30.07,29.75,3,0,10,0.00
2013-1-22,25.2,19.6,13.0,23.7,3.6,-99.9,94,56,35,30.08,29.73,6,2,14,0.00
2013-1-23,17.4,12.0,7.2,-0.4,-3.0,-4.7,63,51,39,30.16,30.07,5,2,10,0.00
2013-1-24,20.2,12.3,4.5,1.2,-4.3,-7.9,67,48,31,30.27,30.09,6,2,16,0.00
2013-1-25,23.3,17.0,10.3,15.4,2.2,-2.8,89,54,35,30.32,30.01,3,1,14,0.00
2013-1-26,25.0,17.7,11.2,14.4,8.1,3.1,90,68,46,30.27,29.98,5,2,13,0.00
2013-1-27,31.7,21.8,12.5,9.0,4.1,-1.3,79,49,28,30.45,30.26,4,2,10,0.00
2013-1-28,34.1,26.2,21.0,33.1,10.0,-99.9,97,62,34,30.44,29.96,2,0,8,0.02
2013-1-29,40.6,34.6,30.1,35.8,32.7,29.4,97,93,81,30.16,29.96,2,0,5,0.14
2013-1-30,55.5,49.2,36.8,54.5,48.7,36.0,99,98,96,30.11,29.44,88,19,131,0.01
2013-1-31,57.1,46.7,30.3,56.5,35.7,11.7,98,68,38,29.63,29.02,89,28,131,0.33
2013-2-1,31.2,27.4,20.6,17.2,11.0,5.2,59,50,35,30.11,29.63,6,3,16,0.00
2013-2-2,30.1,24.1,16.8,20.8,12.6,7.8,82,62,46,30.25,30.03,4,1,13,0.00
2013-2-3,31.8,25.3,19.3,20.4,17.9,15.7,90,74,53,30.04,29.71,3,0,8,0.00
2013-2-4,30.5,25.3,21.0,15.9,11.3,6.5,79,57,39,29.94,29.72,6,2,14,0.00
2013-2-5,26.4,24.7,23.4,23.3,18.7,7.6,92,79,50,29.98,29.88,2,0,5,0.00
2013-2-6,38.3,30.5,25.3,27.9,20.5,1.8,93,69,33,30.29,29.88,5,1,11,0.02
2013-2-7,31.5,26.1,20.0,17.6,9.2,1.6,68,49,34,30.48,30.28,4,1,11,0.00
2013-2-8,32.3,29.8,23.4,31.6,27.2,14.8,98,90,62,30.39,29.44,95,13,144,0.00
2013-2-9,23.2,23.0,22.8,22.0,21.8,21.4,95,95,95,29.51,29.50,6,6,24,0.00
2013-2-12,44.7,39.0,32.2,40.9,31.5,26.1,99,76,55,29.88,29.63,4,2,12,0.00
2013-2-13,41.2,34.5,29.0,27.9,25.5,23.1,82,70,56,29.87,29.65,2,0,8,0.00
2013-2-14,43.0,34.4,28.4,30.2,27.7,24.7,95,78,49,29.98,29.67,2,0,10,0.10
2013-2-15,47.1,39.0,32.5,38.6,35.7,30.4,98,88,71,30.00,29.90,3,1,13,0.01
2013-2-16,37.6,34.7,29.4,36.3,30.7,24.6,96,85,67,29.90,29.62,4,2,13,0.00
2013-2-17,28.8,23.0,16.0,25.1,9.9,2.4,91,59,38,29.77,29.44,8,5,26,0.00
2013-2-18,34.6,22.5,14.8,11.8,1.6,-99.9,60,46,28,30.17,29.78,6,4,24,0.00
2013-2-19,47.6,35.6,27.1,43.7,28.7,11.4,97,77,51,30.18,29.57,4,1,9,0.37
2013-2-20,40.1,31.8,23.7,38.8,19.7,9.7,95,62,44,29.84,29.57,7,3,15,0.00
2013-2-21,32.1,25.7,21.7,16.6,14.3,12.0,71,62,51,30.20,29.81,7,3,19,0.00
2013-2-22,41.2,31.5,23.6,28.0,22.8,15.9,81,70,52,30.35,30.19,3,1,11,0.00
2013-2-23,38.0,34.8,32.1,34.6,31.9,26.8,97,89,80,30.28,29.78,96,9,138,0.15
2013-2-24,38.8,35.7,31.3,37.2,34.6,30.0,98,96,92,29.86,29.64,94,35,139,0.15
2013-2-25,41.1,35.3,28.8,32.5,29.8,26.8,95,81,66,30.21,29.86,3,1,8,0.02
2013-2-26,40.4,36.3,33.5,33.4,30.4,27.5,92,79,66,30.29,30.02,5,1,14,0.06
2013-2-27,43.1,13.9,34.6,41.8,-52.1,-99.9,98,34,93,30.02,29.52,90,1,110,0.38
2013-2-28,48.7,39.9,35.0,43.6,38.1,34.5,99,93,77,29.60,29.50,61,2,131,0.02
2013-3-1,46.2,39.9,35.0,35.6,31.5,26.4,92,73,52,29.67,29.50,4,2,10,0.00
2013-3-2,38.4,35.4,31.7,30.7,27.8,26.6,85,74,66,29.68,29.61,3,1,7,0.00
2013-3-3,37.4,32.7,29.0,27.7,25.4,23.5,86,75,61,29.63,29.55,4,2,9,0.00
2013-3-4,39.1,32.4,27.5,25.8,22.8,20.8,83,68,55,29.76,29.61,8,4,17,0.00
2013-3-5,47.1,36.9,28.9,33.2,27.1,21.6,80,68,51,30.02,29.76,5,2,11,0.00
2013-3-6,41.6,37.4,34.2,36.5,33.0,30.3,93,84,72,29.99,29.86,9,4,22,0.01
2013-3-7,38.9,34.6,31.1,32.0,29.9,28.1,95,83,70,29.94,29.83,9,6,23,0.01
2013-3-8,38.4,32.8,30.4,33.2,30.4,26.2,97,91,63,30.07,29.87,91,6,118,0.05
2013-3-9,51.9,37.7,33.0,32.8,13.4,-99.9,83,49,23,30.30,30.06,7,2,18,0.26
2013-3-10,47.0,36.3,29.4,36.2,31.5,27.6,94,83,65,30.36,30.28,3,0,6,0.00
2013-3-11,49.9,41.8,35.0,43.8,38.9,33.2,96,89,79,30.30,30.11,1,0,5,0.00
2013-3-12,51.5,48.2,41.7,51.0,46.9,40.7,98,95,89,30.11,29.69,88,5,131,0.63
2013-3-13,50.3,42.4,36.1,43.2,31.4,23.8,96,67,38,29.79,29.70,24,2,130,0.00
2013-3-14,38.3,31.7,28.1,29.4,19.9,11.6,91,63,42,29.84,29.74,6,3,17,0.00
2013-3-15,41.1,33.0,25.6,30.3,18.9,10.8,76,56,38,29.88,29.66,8,3,20,0.00
2013-3-16,39.5,33.4,29.8,28.8,22.6,5.6,86,67,24,29.84,29.69,4,1,9,0.00
2013-3-17,36.8,31.9,26.7,28.7,14.3,6.2,86,51,28,30.27,29.84,6,2,16,0.00
2013-3-18,37.2,29.4,22.1,29.1,13.7,2.8,95,54,28,30.40,30.10,4,1,10,0.00
2013-3-19,39.4,34.4,30.3,37.6,33.1,29.0,97,95,90,30.10,29.55,126,18,140,0.59
2013-3-20,41.9,34.7,28.7,31.3,22.7,18.2,94,63,39,29.79,29.68,7,2,16,0.00
2013-3-21,37.7,33.2,29.9,27.6,24.9,20.6,84,72,59,29.79,29.57,5,2,9,0.00
2013-3-22,40.4,33.1,25.7,24.2,18.4,13.2,70,55,39,29.77,29.61,5,3,14,0.00
2013-3-23,44.9,37.2,28.6,24.8,21.0,16.4,78,54,33,29.82,29.66,8,4,19,0.00
2013-3-24,46.9,37.7,29.2,30.9,24.2,19.4,77,59,41,29.85,29.67,5,2,16,0.00
2013-3-25,45.2,37.6,31.9,32.8,28.6,24.7,93,71,48,29.72,29.39,7,2,16,0.02
2013-3-26,46.8,39.7,34.4,31.9,27.5,20.6,81,63,44,29.78,29.48,3,1,15,0.00
2013-3-27,52.4,42.5,32.4,28.6,24.2,20.6,66,49,31,29.85,29.74,5,2,12,0.00
2013-3-28,46.8,41.4,37.5,36.3,31.9,28.1,78,69,58,30.01,29.84,3,1,12,0.00
2013-3-29,57.2,47.4,39.1,35.1,31.8,27.1,78,57,35,30.04,29.95,5,2,12,0.00
2013-3-30,56.7,46.8,37.8,31.9,26.7,16.0,74,49,21,30.08,29.98,5,2,11,0.00
2013-3-31,55.5,45.5,34.2,44.6,33.3,22.0,96,64,41,30.09,29.61,4,1,11,0.19
2013-4-1,58.2,46.6,35.1,47.5,40.3,18.0,97,80,47,29.80,29.55,87,10,104,0.06
2013-4-2,43.7,35.4,29.0,21.1,15.6,8.4,71,46,26,29.97,29.80,8,3,15,0.00
2013-4-3,44.9,36.3,29.6,18.3,14.2,10.4,56,41,26,30.20,29.97,8,4,18,0.00
2013-4-4,50.6,38.3,28.4,33.5,22.7,13.5,82,55,28,30.32,30.07,4,2,15,0.00
2013-4-5,60.4,46.2,38.8,37.2,28.8,13.6,85,57,20,30.07,29.61,7,2,13,0.00
2013-4-6,48.4,39.4,33.4,28.1,16.5,4.2,72,42,17,30.29,29.87,6,3,17,0.00
2013-4-7,54.1,43.5,32.7,43.3,35.7,27.0,94,75,49,30.29,30.01,5,2,13,0.00
2013-4-8,67.4,53.4,43.7,45.5,43.2,39.8,96,72,40,30.05,29.94,4,1,8,0.00
2013-4-9,77.1,59.7,45.2,55.6,46.1,41.3,98,67,30,30.04,29.82,7,2,11,0.02
2013-4-10,67.0,52.5,45.3,51.9,46.7,43.8,96,82,56,29.99,29.81,6,1,13,0.25
2013-4-11,57.7,48.4,44.6,49.6,44.6,35.1,98,87,68,30.07,29.77,3,1,9,0.01
2013-4-12,44.7,41.1,38.3,38.9,35.1,29.0,96,80,56,30.07,29.69,96,27,135,0.53
2013-4-13,54.0,44.7,37.4,39.3,36.8,33.7,95,76,48,29.92,29.67,93,16,145,0.01
2013-4-14,55.2,47.4,41.3,40.0,33.8,25.0,90,61,41,30.19,29.91,6,2,13,0.00
2013-4-15,54.9,45.6,37.6,39.6,32.8,25.7,95,62,44,30.37,30.18,2,0,9,0.00
2013-4-16,57.1,49.4,38.8,50.5,44.7,37.5,96,84,69,30.37,30.10,7,2,13,0.00
2013-4-17,68.3,56.7,44.9,52.3,41.4,30.0,94,62,25,30.28,30.07,5,2,11,0.00
2013-4-18,60.9,49.9,40.3,47.3,38.8,31.8,91,69,35,30.36,30.11,2,0,8,0.00
2013-4-19,67.4,57.5,49.7,61.7,56.2,47.5,99,96,81,30.11,29.66,87,2,101,0.06
2013-4-20,60.0,52.2,43.8,59.6,41.9,28.2,99,72,36,30.20,29.61,7,2,22,0.41
2013-4-21,53.9,42.6,34.1,32.6,25.2,19.9,76,52,28,30.62,30.20,5,2,18,0.00
2013-4-22,55.4,43.9,34.0,36.6,32.3,26.8,89,66,38,30.66,30.50,5,2,11,0.00
2013-4-23,45.1,41.9,38.8,41.9,38.2,32.1,94,86,74,30.50,29.99,6,3,12,0.00
2013-4-24,67.0,51.1,42.2,50.2,44.1,39.5,97,79,44,29.99,29.85,5,2,13,0.00
2013-4-25,63.2,54.1,44.7,50.5,35.7,19.4,97,57,24,30.23,29.86,5,2,12,0.04
2013-4-26,64.4,52.7,38.9,43.5,33.8,20.0,92,51,30,30.36,30.23,2,0,6,0.00
2013-4-27,61.9,50.2,41.1,47.5,42.9,39.9,96,78,45,30.37,30.28,2,0,5,0.00
2013-4-28,64.8,51.8,40.4,46.3,39.7,26.2,97,70,26,30.31,30.21,2,0,7,0.00
2013-4-29,64.0,53.2,46.5,48.5,42.9,35.3,96,71,36,30.24,30.20,1,0,7,0.00
2013-4-30,66.1,55.0,46.9,39.5,33.2,26.3,74,47,25,30.32,30.21,2,0,8,0.00
2013-5-1,66.5,53.0,40.6,49.2,40.2,28.3,84,63,47,30.45,30.31,3,0,9,0.00
2013-5-2,71.4,57.6,43.0,47.4,43.0,35.4,94,62,33,30.43,30.30,3,0,9,0.00
2013-5-3,64.9,53.4,44.6,48.1,41.4,35.6,88,65,46,30.43,30.32,4,1,10,0.00
2013-5-4,65.4,51.6,41.8,48.0,41.8,37.9,89,70,49,30.33,30.22,3,1,8,0.00
2013-5-5,61.0,48.6,37.9,46.5,41.4,36.3,95,78,54,30.27,30.20,2,0,10,0.00
2013-5-6,68.9,53.9,42.0,51.4,45.5,39.8,93,75,53,30.25,30.13,2,0,7,0.00
2013-5-7,72.2,58.1,45.1,60.6,52.5,44.0,97,83,58,30.15,30.09,1,0,7,0.00
2013-5-8,67.9,59.2,54.5,63.2,57.6,53.7,98,94,81,30.12,30.00,3,0,9,0.49
2013-5-9,63.7,57.2,54.8,62.8,56.5,54.2,99,98,93,30.00,29.84,1,0,4,0.22
2013-5-10,78.7,63.7,52.1,61.4,55.7,51.1,99,78,41,29.94,29.88,2,0,7,0.00
2013-5-11,66.0,59.1,54.7,61.9,57.8,53.6,98,96,83,29.90,29.67,2,0,10,0.58
2013-5-12,69.3,60.3,51.2,60.7,51.5,29.6,99,76,37,29.82,29.58,5,1,10,0.01
2013-5-13,59.9,50.3,42.7,37.6,32.8,27.6,72,52,35,30.01,29.82,4,1,11,0.00
2013-5-14,57.1,48.8,39.2,41.1,33.1,28.9,84,56,36,30.05,29.97,2,0,5,0.00
2013-5-15,61.5,52.0,42.1,53.2,46.6,39.7,96,83,47,30.05,29.66,3,0,11,0.00
2013-5-16,77.0,60.5,49.7,55.2,49.8,42.1,98,73,32,29.77,29.66,3,0,8,0.01
2013-5-17,70.1,61.1,50.6,49.4,43.4,38.4,89,54,34,30.18,29.76,3,1,7,0.00
2013-5-18,70.3,57.5,47.0,52.4,48.9,45.5,95,75,44,30.28,30.18,2,0,6,0.00
2013-5-19,64.1,55.3,49.4,55.9,52.0,47.2,98,89,67,30.32,30.18,0,0,6,0.37
2013-5-20,77.6,64.3,55.5,67.4,61.3,54.9,99,91,69,30.18,29.91,2,0,5,0.11
2013-5-21,83.6,69.5,60.4,71.6,64.7,58.7,99,86,63,29.94,29.81,2,0,7,0.00
2013-5-22,74.3,60.9,52.2,66.2,58.2,51.1,97,91,75,29.93,29.84,2,0,6,0.01
2013-5-23,68.7,63.8,60.5,67.1,62.8,59.6,99,97,92,29.90,29.78,2,0,9,0.65
2013-5-24,71.5,60.7,46.4,66.4,58.7,45.3,99,93,78,29.79,29.63,4,1,10,0.30
2013-5-25,49.7,46.3,42.6,47.6,44.4,39.9,97,93,86,29.80,29.72,4,2,12,0.04
2013-5-26,58.6,50.0,42.8,47.3,42.5,39.9,92,76,54,30.13,29.77,4,1,19,0.02
2013-5-27,72.7,58.0,44.7,46.6,42.1,34.9,90,60,27,30.16,30.06,3,1,9,0.00
2013-5-28,73.3,58.3,46.8,56.4,50.2,43.6,97,77,37,30.19,30.13,1,0,5,0.04
2013-5-29,71.7,63.3,56.3,65.2,60.7,55.5,98,92,77,30.14,29.98,2,0,6,0.14
2013-5-30,90.2,74.8,60.9,73.0,65.6,59.5,97,75,50,30.07,30.00,2,0,10,0.00
2013-5-31,91.8,76.7,65.6,72.7,66.5,62.6,93,73,46,30.07,29.95,1,0,5,0.00
2013-6-1,86.5,73.2,63.4,71.3,66.1,61.3,95,80,56,29.98,29.89,2,0,6,0.00
2013-6-2,81.5,70.2,63.3,70.1,64.9,61.8,96,84,64,29.90,29.77,3,0,10,0.00
2013-6-3,71.0,65.9,61.8,68.8,64.4,56.5,99,95,77,29.81,29.75,1,0,5,0.14
2013-6-4,71.5,62.7,53.0,56.4,46.3,39.4,77,56,40,30.04,29.80,3,1,10,0.00
2013-6-5,73.6,61.9,51.6,52.5,48.9,43.3,89,65,40,30.17,30.04,1,0,4,0.00
2013-6-6,73.7,60.7,52.9,60.9,55.1,50.3,97,83,52,30.15,30.03,1,0,7,0.01
2013-6-7,59.0,57.3,55.2,58.6,56.8,54.5,99,98,95,30.03,29.67,2,0,9,2.29
2013-6-8,74.9,63.5,54.3,65.2,59.8,54.0,99,89,70,29.99,29.52,3,1,9,1.12
2013-6-9,78.3,68.2,58.1,63.2,59.5,55.8,96,75,53,30.14,29.98,1,0,4,0.03
2013-6-10,69.7,63.2,58.4,64.8,60.2,57.5,98,90,76,30.14,29.88,31,0,143,1.30
2013-6-11,79.1,66.1,58.5,69.7,64.3,57.9,99,94,68,29.89,29.53,23,1,145,1.01
2013-6-12,70.7,63.6,57.6,62.3,56.9,52.0,97,80,55,29.80,29.58,5,1,11,0.00
2013-6-13,59.9,56.8,52.8,57.7,54.5,51.3,98,92,75,29.79,29.50,31,0,144,0.55
2013-6-14,68.6,58.1,51.7,58.9,53.9,51.2,98,87,64,29.78,29.49,97,13,146,0.60
2013-6-15,78.5,67.7,59.1,57.8,53.3,44.0,90,64,32,29.92,29.78,2,0,7,0.00
2013-6-16,77.1,66.7,56.5,64.9,58.6,48.8,92,76,53,29.93,29.72,1,0,5,0.00
2013-6-17,84.3,70.5,61.6,69.2,63.9,58.0,96,81,56,29.89,29.78,4,0,7,0.02
2013-6-18,79.5,66.7,58.7,69.4,62.8,57.9,98,88,62,29.88,29.80,1,0,5,0.18
2013-6-19,75.0,64.2,54.5,59.4,55.9,49.0,98,77,42,30.11,29.83,4,1,12,0.01
2013-6-20,78.5,65.3,52.8,58.8,53.9,47.8,95,69,39,30.24,30.11,1,0,7,0.00
2013-6-21,80.7,68.1,58.2,64.5,58.5,54.6,93,73,52,30.25,30.20,1,0,5,0.00
2013-6-22,81.7,68.5,59.4,64.7,59.7,55.7,94,75,49,30.22,30.12,2,0,6,0.00
2013-6-23,85.7,72.5,62.0,70.7,66.4,60.8,97,83,57,30.16,30.03,2,0,7,0.00
2013-6-24,91.1,78.4,70.1,77.9,71.3,66.3,98,80,58,30.03,29.88,1,0,5,0.00
2013-6-25,90.3,77.4,67.3,74.5,69.4,64.9,93,78,55,29.93,29.72,1,0,5,0.00
2013-6-26,73.4,72.1,70.9,70.0,69.5,68.5,93,91,88,29.76,29.70,0,0,0,0.00
2013-7-11,78.5,74.5,70.0,75.0,72.5,66.4,98,93,87,29.87,29.76,1,0,3,0.79
2013-7-12,79.2,71.4,67.2,71.7,66.7,62.1,94,85,74,30.11,29.86,2,0,8,0.00
2013-7-13,76.7,71.1,66.0,75.5,69.8,64.1,98,96,90,30.27,30.11,0,0,5,0.21
2013-7-14,86.9,77.4,71.7,78.7,74.3,71.2,99,91,73,30.28,30.18,1,0,4,0.11
2013-7-15,91.0,81.1,72.7,76.9,73.7,71.5,97,80,55,30.18,30.07,2,0,7,0.00
2013-7-16,91.3,82.2,75.0,75.6,71.6,68.0,88,71,51,30.12,30.06,2,0,5,0.00
2013-7-17,89.5,79.4,71.6,77.0,72.8,70.7,97,82,60,30.14,30.01,0,0,1,0.00
2013-7-18,95.2,82.9,73.7,79.0,74.3,71.1,93,77,50,30.01,29.91,1,0,6,0.00
2013-7-19,94.0,83.1,76.2,80.6,76.7,74.2,97,82,59,29.92,29.73,2,0,6,0.00
2013-7-20,90.7,81.1,74.2,77.3,75.0,68.2,93,82,63,29.79,29.64,2,0,8,0.01
2013-7-21,84.5,72.7,67.3,72.7,66.5,61.6,96,82,57,29.94,29.79,1,0,3,0.06
2013-7-22,80.9,73.3,67.8,74.1,70.4,66.6,98,91,78,29.94,29.81,0,0,5,0.00
2013-7-23,83.5,74.4,70.7,78.3,72.6,69.8,99,95,75,29.80,29.52,124,2,131,0.97
2013-7-24,84.3,75.1,69.4,75.0,69.6,59.8,99,84,66,29.86,29.55,2,0,6,0.01
2013-7-25,69.3,60.0,57.3,62.0,57.6,54.7,98,92,72,30.01,29.86,38,1,92,0.59
2013-7-26,64.1,59.4,58.1,62.3,58.7,57.5,98,98,94,29.98,29.92,2,1,14,0.12
2013-8-11,78.5,72.1,64.9,62.2,58.6,54.9,90,64,45,30.06,29.99,1,0,5,0.00
2013-8-12,80.8,70.2,64.7,68.3,64.6,61.4,97,84,58,30.01,29.90,0,0,4,0.00
2013-8-13,70.1,67.4,65.2,69.2,66.5,64.2,99,97,91,29.90,29.66,0,0,0,0.14
2013-8-14,72.4,65.5,58.4,65.0,56.5,52.9,98,74,53,29.96,29.66,3,1,9,0.00
2013-8-15,75.5,62.6,53.9,59.2,54.7,49.9,94,77,43,30.10,29.96,1,0,7,0.00
2013-8-16,79.2,67.8,58.4,61.7,58.2,51.6,98,74,40,30.17,30.08,0,0,4,0.00
2013-8-17,81.7,68.3,57.5,64.9,60.7,55.8,95,79,45,30.24,30.17,1,0,5,0.00
2013-8-18,74.1,65.6,60.4,65.5,61.2,57.8,97,86,67,30.24,30.07,0,0,0,0.02
2013-8-19,78.5,68.4,59.6,68.6,62.9,56.8,94,83,60,30.08,29.96,1,0,4,0.01
2013-8-20,83.7,72.2,62.7,68.4,64.0,61.5,96,77,52,30.08,29.97,1,0,4,0.00
2013-8-21,87.2,74.4,64.0,70.5,65.5,62.5,95,76,44,30.12,30.02,0,0,3,0.00
2013-8-22,78.2,71.3,68.4,73.6,69.9,67.3,99,95,82,30.02,29.82,1,0,7,0.24
2013-8-23,79.0,70.5,64.5,67.5,64.1,58.6,99,81,54,30.07,29.80,3,0,8,0.01
2013-8-24,76.4,65.4,56.8,59.7,56.1,51.8,90,73,46,30.31,30.07,2,0,8,0.00
2013-8-25,81.0,67.2,55.1,63.7,56.6,46.2,97,73,31,30.34,30.18,1,0,7,0.00
2013-8-26,78.0,69.7,65.5,68.4,64.3,60.7,98,84,67,30.19,29.87,1,0,5,0.48
2013-8-27,78.8,71.1,67.8,72.8,69.1,66.9,99,94,78,29.87,29.77,2,0,7,0.41
2013-8-28,83.9,71.7,67.1,74.1,69.1,66.5,99,92,70,29.88,29.82,1,0,5,0.00
2013-8-29,72.5,66.9,61.1,67.9,64.8,59.2,99,93,83,30.02,29.87,2,0,6,0.00
2013-8-30,76.8,67.1,59.1,70.5,64.5,57.8,98,91,80,30.00,29.83,1,0,7,0.00
2013-8-31,78.6,72.4,68.1,73.4,70.5,67.5,99,94,83,29.83,29.77,1,0,4,0.00
2013-9-1,78.0,73.4,71.1,75.1,72.2,70.0,99,96,90,29.84,29.78,1,0,4,0.53
2013-9-2,74.2,72.3,71.0,73.9,71.8,70.7,99,98,97,29.81,29.67,1,0,2,0.12
2013-9-3,72.7,69.2,61.4,72.7,68.8,60.3,100,99,96,29.81,29.66,1,0,4,0.79
2013-9-4,77.2,66.3,57.2,64.2,60.4,56.5,99,83,57,29.91,29.80,2,0,6,0.01
2013-9-5,74.3,65.3,56.4,63.3,57.3,47.9,94,77,53,30.09,29.86,2,0,8,0.00
2013-9-6,56.4,53.3,51.2,48.7,47.5,45.6,85,81,73,30.14,30.09,0,0,5,0.00
2013-9-8,76.0,68.1,53.8,65.1,57.5,44.3,90,70,46,30.04,29.75,4,1,10,0.00
2013-9-9,68.8,57.7,48.1,54.5,47.9,42.2,87,71,44,30.21,30.04,1,0,5,0.00
2013-9-10,73.3,67.4,58.7,70.0,64.5,54.8,97,91,84,30.15,29.98,2,0,7,0.00
2013-9-11,90.1,76.3,69.3,79.1,72.4,68.6,99,89,68,30.07,29.96,1,0,5,0.00
2013-9-12,81.4,73.1,68.1,74.4,70.6,67.4,99,92,79,29.97,29.65,2,0,6,0.65
2013-9-13,78.7,68.3,59.5,68.6,65.8,55.3,99,92,65,29.74,29.56,2,0,8,0.22
2013-9-14,66.5,58.7,52.4,58.2,53.2,49.4,94,82,67,30.05,29.74,2,0,6,0.00
2013-9-15,68.7,57.6,48.6,55.2,50.7,45.8,92,79,48,30.15,30.05,1,0,5,0.00
2013-9-16,65.6,59.1,50.6,58.9,55.1,41.6,96,87,71,30.19,30.00,3,0,9,0.03
2013-9-17,59.9,51.0,41.8,45.5,41.1,37.3,87,70,51,30.38,30.19,3,1,10,0.00
2013-9-18,69.3,55.2,42.3,53.2,46.7,40.5,95,75,44,30.32,30.15,1,0,4,0.00
2013-9-19,76.0,61.1,49.7,58.7,53.7,48.1,95,79,48,30.15,30.03,1,0,3,0.00
2013-9-20,76.4,62.5,52.0,62.3,57.1,51.1,98,84,53,30.06,29.98,0,0,1,0.00
2013-9-21,73.0,64.7,55.9,67.5,62.7,55.1,99,94,79,30.00,29.69,2,0,9,0.00
2013-9-22,68.6,63.1,51.0,67.2,57.7,44.9,98,83,62,29.82,29.60,2,0,9,0.36
2013-9-23,61.4,52.9,45.0,51.0,45.4,42.0,90,77,58,29.98,29.81,2,0,7,0.00
2013-9-24,65.4,53.0,42.2,50.9,45.0,40.1,93,76,51,29.99,29.80,2,0,7,0.00
2013-9-25,69.0,57.9,48.3,55.9,50.2,44.6,91,77,51,29.93,29.83,1,0,6,0.00
2013-9-26,62.7,57.0,50.8,54.2,51.9,49.3,96,84,65,30.08,29.93,2,0,6,0.00
2013-9-27,63.6,56.9,51.1,56.0,52.9,49.7,96,87,72,30.23,30.07,2,0,6,0.00
2013-9-28,71.8,58.7,49.0,59.8,54.0,47.9,97,86,59,30.29,30.21,2,0,5,0.00
2013-9-29,68.5,56.5,50.0,56.8,52.7,48.9,99,88,52,30.22,30.06,1,0,4,0.00
2013-9-30,68.0,57.0,48.6,57.0,52.0,47.8,98,85,55,30.07,29.93,1,0,6,0.00
2013-10-1,75.0,62.9,50.3,61.8,55.6,49.2,97,79,49,29.94,29.84,2,0,8,0.00
2013-10-2,79.5,68.1,60.2,65.3,60.5,56.2,93,78,57,29.95,29.83,1,0,8,0.00
2013-10-3,74.9,64.7,56.8,60.1,53.9,45.0,92,70,35,30.06,29.95,1,0,4,0.00
2013-10-4,76.6,62.8,55.6,67.6,59.4,54.1,96,89,73,30.04,29.96,1,0,6,0.00
2013-10-5,71.5,61.8,58.0,66.7,59.8,56.9,99,93,79,30.07,30.00,1,0,3,0.16
2013-10-6,61.7,59.7,57.6,60.3,59.0,57.0,99,98,93,30.13,30.05,0,0,4,0.16
2013-10-7,74.5,67.2,60.0,70.7,65.8,59.7,99,96,84,30.05,29.81,3,1,9,0.09
2013-10-8,64.1,57.4,49.6,60.3,48.1,43.5,94,73,49,30.31,29.88,4,0,10,0.00
2013-10-9,62.5,52.5,45.1,50.8,46.2,41.9,92,80,59,30.39,30.29,1,0,7,0.00
2013-10-10,63.4,55.0,48.1,57.8,51.8,46.0,94,89,79,30.29,30.08,2,0,7,0.00
2013-10-11,66.6,59.6,53.9,60.6,55.5,45.3,96,86,70,30.08,30.02,1,0,9,0.00
2013-10-12,69.9,57.5,50.3,58.2,51.4,44.8,91,81,62,30.30,30.07,2,0,7,0.00
2013-10-13,59.1,53.4,47.1,53.2,49.5,45.2,95,87,77,30.37,30.28,1,0,5,0.00
2013-10-14,63.6,50.5,40.8,51.3,46.3,39.9,98,86,58,30.36,30.23,1,0,3,0.00
2013-10-15,68.5,54.3,45.8,53.4,48.6,44.8,98,83,48,30.24,30.12,1,0,3,0.00
2013-10-16,64.8,56.1,48.3,58.1,53.2,47.2,96,90,77,30.12,29.89,1,0,7,0.00
2013-10-17,67.0,61.2,55.7,62.5,59.5,54.6,98,94,83,29.89,29.70,1,0,8,0.00
2013-10-18,66.5,60.7,51.0,62.4,52.9,43.8,98,77,51,29.90,29.61,2,0,7,0.02
2013-10-19,62.9,54.9,45.7,54.1,47.1,41.5,92,76,54,29.96,29.71,0,0,5,0.00
2013-10-20,61.2,54.7,48.3,56.6,43.3,34.9,97,68,38,30.01,29.67,3,0,7,0.05
2013-10-21,64.7,53.9,45.4,48.8,42.2,37.5,82,66,40,30.10,29.97,2,0,6,0.00
2013-10-22,67.2,57.1,47.8,55.0,50.0,43.1,95,78,53,29.98,29.68,2,0,8,0.00
2013-10-23,48.2,44.6,40.1,43.0,39.2,36.1,89,81,63,29.77,29.57,1,0,4,0.00
2013-10-24,53.0,44.7,38.5,37.8,32.6,27.3,86,64,38,29.90,29.66,3,1,12,0.00
2013-10-25,48.7,42.1,34.7,34.0,30.5,28.3,84,64,47,30.17,29.90,4,1,10,0.00
2013-10-26,53.5,46.2,36.5,40.9,34.7,31.1,85,65,43,30.16,29.86,5,1,11,0.01
2013-10-27,55.8,49.0,42.8,40.3,35.1,30.6,85,60,40,30.06,29.80,3,1,11,0.01
2013-10-28,58.6,47.9,37.5,40.6,34.6,31.4,81,61,42,30.30,30.06,3,0,8,0.00
2013-10-29,53.0,43.8,38.3,34.0,28.6,25.7,69,55,42,30.39,30.30,2,0,6,0.00
2013-10-30,57.9,47.0,37.1,48.3,39.4,28.4,89,75,64,30.33,30.17,1,0,6,0.00
2013-10-31,63.1,53.0,42.6,60.8,50.8,40.4,97,92,86,30.21,29.79,2,0,6,0.17
2013-11-1,66.0,61.8,58.8,63.0,59.4,55.7,98,92,84,29.79,29.50,61,2,105,0.14
2013-11-2,66.1,57.0,50.9,56.5,48.2,41.4,92,73,46,29.70,29.57,2,0,7,0.00
2013-11-3,53.7,44.4,33.4,46.7,34.2,19.8,86,68,49,30.38,29.70,3,1,11,0.00
2013-11-4,43.7,35.9,29.8,26.3,19.5,15.0,78,53,33,30.66,30.38,3,0,9,0.00
2013-11-5,50.7,40.2,30.2,39.2,33.0,25.2,86,76,60,30.66,30.48,1,0,5,0.00
2013-11-6,59.2,50.4,41.0,52.1,45.7,38.4,97,85,63,30.49,30.05,3,0,9,0.00
2013-11-7,61.7,38.5,53.0,60.3,4.0,-99.9,99,64,92,30.05,29.67,31,1,131,0.33
2013-11-8,48.9,22.4,36.3,33.7,-32.3,-99.9,72,31,48,30.12,29.82,255,1,255,0.00
2013-11-9,47.7,40.0,31.3,38.3,29.5,25.2,83,67,47,30.22,30.00,3,1,8,0.00
2013-11-10,58.5,48.8,42.3,45.2,39.8,34.8,86,71,53,30.00,29.71,5,1,12,0.04
2013-11-11,52.2,46.1,39.3,40.2,33.2,28.4,70,61,45,30.12,29.90,5,2,13,0.00
2013-11-12,50.7,37.1,28.1,38.9,28.7,17.4,94,72,57,30.18,29.85,5,2,12,0.02
2013-11-13,36.8,29.1,24.5,18.8,16.7,11.7,75,60,38,30.28,30.17,4,1,12,0.00
2013-11-14,49.1,41.3,31.2,31.5,24.5,18.9,67,52,34,30.20,30.07,5,2,9,0.00
2013-11-15,57.4,47.1,40.9,42.6,35.7,25.2,92,66,31,30.21,30.13,4,1,7,0.00
2013-11-16,60.5,49.0,43.2,45.4,40.2,30.6,97,73,41,30.29,30.18,3,0,7,0.00
2013-11-17,58.4,51.8,40.9,58.1,50.9,40.1,99,97,89,30.26,29.81,53,2,138,0.10
2013-11-18,62.4,57.6,48.1,60.5,48.0,32.2,99,73,45,29.81,29.54,88,18,138,0.34
2013-11-19,48.1,40.8,32.3,36.0,26.0,21.4,66,56,44,30.25,29.66,6,3,15,0.00
2013-11-20,42.1,33.7,28.0,21.4,16.7,11.6,66,51,30,30.59,30.25,4,1,13,0.00
2013-11-21,47.9,35.8,25.3,38.7,19.7,-99.9,82,61,43,30.60,30.37,2,0,6,0.00
2013-11-22,51.4,48.3,44.2,50.6,46.4,38.7,97,93,81,30.37,29.81,3,1,9,0.09
2013-11-23,50.5,41.4,29.9,48.5,28.7,18.1,95,62,36,29.91,29.80,6,3,16,0.01
2013-11-24,29.8,24.2,21.3,18.0,6.3,0.9,61,46,34,30.23,29.83,7,4,24,0.00
2013-11-25,35.5,26.7,18.3,24.6,12.3,5.3,66,55,40,30.39,30.23,4,2,13,0.00
2013-11-26,46.9,38.2,34.7,46.4,28.5,19.4,98,70,49,30.31,29.91,92,5,131,0.30
2013-11-27,60.9,50.1,36.9,60.6,49.1,30.6,99,96,77,29.91,29.19,92,26,145,1.52
2013-11-28,37.2,26.8,24.1,31.5,2.2,-99.9,80,53,40,30.44,29.54,6,2,14,0.00
2013-11-29,35.1,28.8,24.2,20.5,17.2,13.7,74,62,51,30.70,30.43,255,0,255,0.00
2013-11-30,35.2,24.9,17.7,26.6,10.8,-99.9,84,65,51,30.74,30.38,3,0,9,0.00
2013-12-1,43.8,39.2,31.1,43.3,37.5,26.4,98,94,79,30.38,29.97,2,0,4,0.14
2013-12-2,44.2,38.2,35.0,41.6,37.3,34.2,99,97,84,29.97,29.86,1,0,3,0.00
2013-12-3,50.4,37.5,32.1,39.4,34.5,31.6,99,90,57,29.87,29.82,3,1,6,0.00
2013-12-31,38.6,38.5,38.5,29.7,29.7,29.6,70,70,70,30.23,30.23,4,4,6,0.00